Regional Weather Roundup
Issued by NWS

Home | Current Version | Previous Version | Graphics & Text | Print | Product List | Glossary On
Versions: 1 2 3 4 5 6 7 8 9 10 11 12 13 14 15 16 17 18 19 20 21 22 23 24 25 26 27 28 29 30 31 32 33 34 35 36 37 38 39 40 41 42 43 44 45 46 47 48 49 50
000
ASUS45 KABQ 011010
RWRNM
WEATHER ROUNDUP FOR NEW MEXICO
NATIONAL WEATHER SERVICE ALBUQUERQUE NM
400 AM MDT FRI AUG 01 2014

NOTE: "FAIR" MEANS FEW OR NO CLOUDS BELOW 12,000 FEET AGL WITH NO
       SIGNIFICANT WEATHER OR OBSTRUCTIONS TO VISION.

      THIS PRODUCT IS RELEASED AS TWO VERSIONS.  ONE VERSION NEAR
      THE TOP OF THE HOUR CONTAINING PRELIMINARY DATA FROM ALBUQUERQUE
      AND OTHER STATIONS.  A FINAL VERSION WITH ADDITIONAL DATA IS
      ISSUED ABOUT 10 MINUTES AFTER THE HOUR.

NMZ501-503-504-510>518-011100-
NORTHWEST PLATEAU/NORTHCENTRAL MOUNTAINS

CITY           SKY/WX    TMP DP  RH WIND       PRES   REMARKS
FARMINGTON     CLEAR     66  54  65 E10       30.21S
LOS ALAMOS     PTCLDY    55  51  86 S6        30.38R
SANTA FE         N/A     56  52  86 E6        30.32F
TAOS             N/A     52  48  87 CALM      30.39R
ANGEL FIRE     CLOUDY    50  48  94 CALM      30.46S

$$
NMZ402-403-502-505>509-011100-
WESTCENTRAL MOUNTAINS/SOUTHWEST MOUNTAINS

CITY           SKY/WX    TMP DP  RH WIND       PRES   REMARKS
GALLUP         CLOUDY    61  54  77 NE3       30.28S
SILVER CITY    MOCLDY    64  63  94 SW7       30.27R

$$
NMZ407-409-411-412-011100-
SOUTHERN DESERTS

CITY           SKY/WX    TMP DP  RH WIND       PRES   REMARKS
LORDSBURG      FAIR      70  61  73 S7        30.19R
DEMING         LGT RAIN  66  64  93 E9        30.19S
LAS CRUCES     CLOUDY    64  63  97 NE5       30.21F
HOLLOMAN AFB   LGT RAIN  64  64 100 E5        30.18S FOG
ALAMOGORDO     RAIN      64  64 100 SE3       30.21S
T OR C         CLOUDY    64  60  87 CALM      30.22R

$$
NMZ519>523-011100-
CENTRAL VALLEYS/CENTRAL HIGHLANDS

CITY           SKY/WX    TMP DP  RH WIND       PRES   REMARKS
ALBUQUERQUE    PTCLDY    63  54  72 E5        30.26F
DOUBLE EAGLE   PTCLDY    59  55  87 NW6       30.29S
MORIARTY ARPT  CLOUDY    57  55  92 NE3       30.33F
CLINES CORNERS CLOUDY    55  54  96 E10       30.35S
BELEN          FAIR      61  57  88 SE5       30.25S
SOCORRO        FAIR      63  59  85 CALM      30.23S

$$
NMZ524>526-539-540-011100-
SOUTHCENTRAL MOUNTAINS

CITY           SKY/WX    TMP DP  RH WIND       PRES   REMARKS
RUIDOSO        LGT RAIN  55  55 100 S6        30.36S

$$
NMZ527>531-011100-
NORTHEAST HIGHLANDS/NORTHEAST PLAINS

CITY           SKY/WX    TMP DP  RH WIND       PRES   REMARKS
LAS VEGAS      CLOUDY    53  51  93 CALM      30.37S
RATON          CLOUDY    58  56  93 NE7       30.33S
CLAYTON        CLOUDY    64  55  72 SW3       30.27S

$$
NMZ532>537-011100-
EASTCENTRAL PLAINS

CITY           SKY/WX    TMP DP  RH WIND       PRES   REMARKS
TUCUMCARI      CLOUDY    69  58  67 S6        30.22R
CANNON AFB     CLOUDY    64  54  70 CALM      30.24S
CLOVIS AIRPORT NOT AVBL

$$
NMZ028-029-538-011100-
SOUTHEAST PLAINS

CITY           SKY/WX    TMP DP  RH WIND       PRES   REMARKS
ROSWELL        LGT RAIN  67  64  90 N9        30.18F
ARTESIA        CLOUDY    66  64  94 N15       30.18S
CARLSBAD         N/A     73  67  81 NW6       30.14R
HOBBS          MOCLDY    66  57  72 E7        30.19R


$$



USA.gov is the U.S. government's official web portal to all federal, state and local government web resources and services.